{"data":{"norad_id":69187,"intl_designator":"2026-114F","name":"STARLINK-37209","alt_names":[],"object_type":"PAYLOAD","status":"ACTIVE","operator":null,"country":"US","launch_date":"2026-05-25","launch_site_code":"AFETR","launch_vehicle":null,"mission":null,"orbit_class":"UNKNOWN","rcs_meters":null,"size_class":null,"mass_kg":null,"dimensions":null,"purposes":["comms"],"wikipedia_slug":null,"has_3d_model":false,"image_url":null,"decayed_at":null,"tle_current":{"epoch":"2026-09-19T23:35:10.120992Z","epoch_age_seconds":71722,"freshness":"FRESH","line1":"1 69187U 26114F   26262.98275603  .00009691  00000+0  29759-3 0  9992","line2":"2 69187  53.1580 116.3742 0000755 152.7623 207.3419 15.34397559 19368","mean_motion":15.34397559,"eccentricity":7.55e-5,"inclination_deg":53.158,"raan_deg":116.3742,"arg_perigee_deg":152.7623,"mean_anomaly_deg":207.3419,"bstar":0.00029759,"rev_number":1936,"period_min":93.847907379264,"perigee_km":462.19401139724,"apogee_km":463.22697936904,"semimajor_km":6840.8474953831,"source":"CELESTRAK","updated_at":"2026-09-20T09:00:44.096514Z"}}}